Wind_Speed
26 25 22 20 18 17 15 12 10 8 8 6 5 4 4 5 5 5 6 7 6 7 7 7 8 9 11 11 11 11 11 11 11 10 10 9 8 7 6 6 5 4 3 3
28 27 23 22 22 20 18 15 14 12 10 9 7 5 3 5 5 4 4 5 5 6 6 6 6 7 8 9 9 10 11 11 10 10 10 9 8 7 7 6 5 5 4 3
30 28 27 26 24 22 21 19 17 15 13 12 10 8 6 5 5 4 5 5 5 5 5 6 6 6 6 7 8 8 9 10 10 10 10 9 9 7 6 6 5 5 5 4
31 30 30 28 26 25 23 21 20 18 17 15 14 13 8 8 7 6 5 6 6 5 5 5 5 5 5 6 6 8 8 9 9 10 9 9 8 8 7 6 5 5 5 4
31 31 31 30 29 27 25 24 23 21 20 19 17 17 12 11 9 8 7 7 7 6 6 6 6 6 6 6 6 7 7 8 8 9 8 9 8 8 8 7 6 5 5 5
32 32 32 30 30 29 28 27 26 24 24 23 20 19 16 13 11 9 9 8 9 8 8 7 7 7 7 7 7 7 7 8 8 8 8 8 8 8 8 7 6 6 6 6
33 32 32 31 31 31 30 29 28 27 27 26 23 22 19 16 14 13 12 11 11 10 9 9 9 9 9 8 8 9 8 8 9 9 8 8 8 9 8 8 7 7 7 7
32 32 32 31 31 31 31 30 30 29 28 26 26 24 20 18 16 15 15 14 13 12 12 11 10 10 10 10 10 10 9 9 9 10 10 9 9 9 9 9 8 8 8 8
31 31 31 31 31 31 31 30 29 29 28 27 26 25 21 20 20 18 16 15 14 12 13 13 11 10 11 11 11 10 10 11 11 11 11 11 10 10 10 9 9 9 9 9
31 30 30 31 32 32 31 30 30 30 29 28 28 26 24 21 21 20 18 17 15 14 14 14 13 12 12 13 13 11 10 11 12 13 13 13 13 13 12 11 11 11 11 11
30 30 30 31 32 31 32 31 31 31 31 30 28 26 24 22 21 20 18 17 16 15 15 15 14 14 15 15 14 13 13 13 13 14 14 15 15 14 13 13 13 14 14 14
28 28 29 30 31 32 32 31 31 32 31 31 30 28 25 22 21 20 18 17 16 17 17 17 16 16 16 17 16 16 16 15 15 15 16 16 16 16 15 15 16 16 16 17
28 29 29 30 32 31 32 32 33 32 32 32 31 29 26 24 22 20 19 18 18 17 18 19 18 17 17 17 18 18 17 18 17 17 18 18 17 17 17 17 18 19 19 20
29 30 29 29 30 31 32 32 32 32 33 32 31 29 27 25 24 22 20 20 19 19 19 19 19 18 18 18 18 18 19 19 19 19 19 20 20 19 19 20 20 21 21 21
29 30 30 29 29 31 32 32 32 32 32 33 31 30 28 27 25 24 22 22 20 20 19 20 20 20 19 19 19 20 21 21 20 20 20 21 21 22 22 23 23 23 22 22
30 30 30 29 29 30 31 32 33 32 33 33 33 31 28 28 26 26 24 23 22 22 21 21 20 19 19 20 20 21 21 21 21 21 22 23 23 24 24 24 24 23 24 23
31 31 31 30 29 30 31 32 32 33 33 33 32 30 30 29 27 27 26 25 24 24 23 22 21 20 21 22 23 22 23 23 24 24 24 24 24 24 24 25 24 24 25 25
33 33 32 31 31 33 32 32 33 34 34 32 32 30 29 28 28 28 27 27 26 25 25 24 24 23 24 25 26 26 25 26 26 26 26 25 25 25 26 26 26 26 26 26
34 33 33 33 34 34 34 33 33 33 34 33 32 30 30 29 28 28 28 28 28 27 27 27 27 27 27 28 28 28 28 28 28 27 27 27 27 27 26 27 27 27 27 26
34 34 35 35 35 35 34 33 33 33 34 33 33 32 30 30 29 29 29 29 30 30 30 30 30 29 29 30 29 30 30 29 28 28 29 29 29 28 28 28 28 28 28 27
33 33 34 34 35 35 34 33 33 33 33 32 32 32 32 31 30 30 31 31 31 31 31 32 32 31 32 33 32 30 30 29 29 29 29 30 30 30 30 29 29 29 30 29
33 33 34 34 34 34 32 31 31 31 31 31 32 31 32 32 32 32 33 33 33 32 32 32 33 33 34 34 33 32 31 30 31 32 32 32 32 32 32 32 31 31 31 31
33 33 32 32 32 31 30 30 30 31 32 32 32 33 33 33 33 33 34 34 34 34 35 35 35 35 35 35 35 34 33 33 33 34 34 34 34 34 34 33 33 32 32 32
33 34 33 32 31 31 31 31 30 31 32 32 33 33 33 34 35 34 34 35 35 36 37 37 37 38 36 36 36 35 35 35 35 35 35 36 36 36 36 35 35 35 34 33
34 34 34 33 32 32 32 32 31 31 32 32 33 34 34 34 35 36 36 36 36 36 37 37 37 37 36 35 36 37 37 37 37 36 37 37 37 37 37 37 37 37 36 35
32 33 33 33 32 32 32 32 32 32 32 31 32 33 34 34 35 36 36 36 36 37 38 37 37 37 36 36 36 36 37 37 37 37 37 38 37 37 37 36 36 35 36 36
Wind_Direction
227 227 228 230 234 238 242 242 243 249 258 263 280 296 325 341 350 352 359 7 18 22 22 26 30 35 38 42 44 43 42 41 43 44 42 36 33 29 25 20 17 13 357 334
228 228 228 228 231 234 236 240 243 246 251 254 254 261 298 318 321 321 340 351 358 4 10 7 14 23 30 31 37 40 38 36 35 35 35 31 25 23 21 15 13 7 359 338
228 228 228 229 230 232 235 239 243 246 251 255 256 256 271 294 301 308 324 332 342 350 351 352 357 7 14 15 18 28 33 29 27 27 25 22 20 16 12 9 8 2 347 332
226 226 228 230 230 232 236 240 243 248 250 255 260 260 265 280 285 294 305 311 323 329 334 334 340 343 353 356 358 7 18 18 16 13 13 11 11 6 359 354 356 358 353 336
228 227 229 230 230 231 235 239 244 248 250 254 257 263 269 274 281 284 286 292 292 299 310 319 323 322 330 334 334 340 353 356 359 1 0 1 358 353 348 343 340 337 336 331
228 227 228 229 228 230 234 238 242 245 250 255 258 262 267 272 277 281 281 284 284 284 289 302 310 314 315 315 317 320 326 333 339 347 351 349 345 341 338 342 339 332 322 317
228 227 228 228 228 229 233 238 242 245 249 255 258 258 263 266 272 273 274 278 280 281 278 285 294 301 307 306 306 307 310 313 322 329 333 335 331 331 330 329 328 325 321 314
230 229 229 230 230 231 234 238 243 249 252 255 256 259 260 260 266 271 272 275 276 274 275 278 285 295 301 299 297 293 297 306 311 316 317 318 318 316 316 317 313 312 312 309
230 229 228 231 230 232 234 237 242 249 251 254 256 258 260 262 265 268 268 270 272 274 275 273 273 282 289 289 291 294 291 296 300 303 308 307 306 303 301 303 303 301 300 297
231 229 227 228 228 230 233 236 240 246 250 254 257 260 263 265 266 267 267 267 269 271 273 268 266 271 278 280 285 288 291 296 297 302 307 304 301 298 290 293 293 291 289 288
230 230 226 228 229 231 232 236 240 245 249 254 259 262 263 264 266 267 265 265 267 265 267 265 262 266 271 277 283 288 286 290 296 297 303 302 297 298 296 289 291 289 287 288
230 231 230 229 231 231 234 237 241 246 250 255 260 263 264 263 265 267 266 267 268 261 259 261 261 262 267 274 282 286 288 290 292 296 296 297 293 291 290 290 289 288 289 286
231 233 232 231 232 234 236 239 242 245 250 255 260 264 265 264 265 267 266 268 267 261 258 258 260 264 268 273 278 282 283 286 289 292 292 293 292 288 287 287 287 286 287 289
233 236 237 238 238 238 239 241 243 246 250 255 260 265 265 263 264 265 266 267 268 262 261 261 263 266 269 273 278 282 283 284 285 286 286 287 288 286 286 286 287 288 289 290
234 238 240 242 241 241 243 243 245 247 251 254 259 264 265 263 263 264 266 266 265 263 263 264 266 269 270 273 276 279 282 282 283 285 284 284 284 285 287 288 288 289 288 289
236 240 242 243 244 245 246 247 247 249 251 254 258 262 263 262 262 263 265 266 265 262 265 268 270 272 271 274 278 279 280 281 282 283 284 286 287 286 287 289 288 289 287 287
240 242 243 244 244 246 247 247 249 252 252 254 257 260 262 262 263 262 262 262 264 264 267 268 268 270 273 275 277 280 279 278 281 283 284 285 287 285 286 286 287 285 285 285
242 244 245 246 246 249 251 251 250 252 254 256 256 258 262 262 262 262 262 262 262 266 270 270 268 270 273 275 277 276 276 279 280 281 282 282 284 285 286 287 286 285 285 286
242 244 246 248 249 253 254 254 253 254 253 254 256 258 260 260 260 261 263 262 265 267 269 270 271 271 272 273 275 275 276 278 279 280 280 281 283 284 285 286 285 285 285 285
243 244 247 249 251 253 254 255 256 255 254 254 255 257 259 260 260 261 262 264 267 269 270 270 269 269 272 273 273 275 275 277 280 279 279 280 280 281 283 284 285 284 286 286
243 245 248 251 253 255 255 255 256 257 257 256 256 256 256 258 259 259 261 263 265 266 268 269 270 271 274 274 273 276 278 278 279 279 279 279 280 282 283 283 283 283 284 285
244 246 248 250 252 255 257 257 256 258 257 256 255 256 257 258 260 260 260 261 264 264 265 269 270 273 273 272 272 274 278 278 279 279 280 280 280 281 282 281 281 282 283 282
244 245 248 250 252 254 255 256 256 256 257 257 256 255 256 257 258 260 261 262 264 265 266 268 270 273 273 273 275 274 276 276 277 278 279 280 280 281 282 284 283 281 281 281
245 247 249 251 252 252 255 258 259 259 260 260 259 258 259 260 261 262 263 263 263 264 266 268 270 273 273 274 275 274 275 275 277 278 279 279 279 280 281 282 283 282 279 280
248 250 251 252 253 254 257 260 260 259 259 260 260 261 262 263 263 264 264 263 263 265 265 267 270 272 273 274 274 274 275 276 277 277 278 279 279 280 281 282 283 284 281 281
250 251 251 253 255 257 258 259 261 260 261 261 261 261 262 262 264 265 266 266 266 266 266 267 269 271 273 275 276 276 275 276 277 277 278 279 279 280 281 281 280 281 281 279
Height
5898 5901 5903 5905 5907 5908 5909 5910 5910 5911 5912 5912 5913 5913 5913 5912 5912 5912 5911 5910 5909 5908 5906 5905 5904 5903 5901 5900 5899 5897 5896 5895 5894 5892 5891 5890 5889 5888 5887 5886 5886 5885 5884 5884
5895 5898 5901 5902 5904 5905 5907 5908 5909 5910 5910 5911 5911 5912 5912 5912 5912 5911 5911 5910 5909 5908 5907 5905 5904 5903 5902 5901 5900 5898 5897 5896 5895 5893 5892 5891 5890 5889 5888 5887 5886 5885 5885 5884
5890 5895 5896 5898 5900 5902 5904 5906 5907 5908 5908 5908 5910 5911 5911 5911 5911 5911 5910 5909 5909 5908 5907 5905 5904 5903 5902 5901 5900 5899 5897 5896 5895 5894 5893 5891 5890 5889 5888 5887 5886 5885 5885 5884
5886 5889 5892 5894 5897 5899 5901 5903 5904 5904 5905 5906 5908 5909 5910 5910 5910 5909 5909 5908 5908 5907 5906 5905 5904 5903 5902 5901 5900 5899 5897 5896 5895 5894 5893 5892 5891 5890 5888 5887 5886 5885 5884 5884
5881 5884 5887 5890 5893 5895 5898 5899 5900 5901 5902 5903 5904 5905 5907 5907 5908 5908 5907 5907 5906 5906 5905 5904 5903 5903 5902 5901 5900 5899 5897 5896 5895 5894 5893 5891 5890 5889 5888 5887 5886 5885 5884 5883
5875 5878 5881 5885 5888 5891 5893 5895 5896 5897 5898 5899 5901 5902 5903 5904 5905 5905 5905 5905 5905 5905 5904 5903 5902 5902 5901 5900 5899 5898 5897 5895 5894 5893 5892 5891 5890 5889 5887 5886 5885 5884 5883 5882
5869 5873 5876 5880 5883 5885 5888 5891 5892 5893 5894 5895 5897 5897 5900 5901 5902 5902 5902 5902 5903 5903 5902 5901 5901 5900 5899 5898 5897 5896 5895 5894 5893 5892 5890 5889 5889 5887 5886 5885 5884 5883 5881 5880
5863 5867 5871 5874 5878 5880 5883 5885 5888 5889 5889 5891 5892 5893 5896 5897 5898 5898 5899 5899 5899 5900 5900 5899 5898 5898 5897 5896 5894 5893 5893 5892 5891 5890 5889 5888 5887 5885 5884 5883 5882 5881 5880 5879
5858 5863 5866 5869 5872 5875 5877 5879 5882 5883 5884 5885 5887 5889 5891 5892 5893 5895 5895 5896 5896 5896 5896 5896 5896 5895 5894 5893 5892 5891 5890 5889 5888 5887 5886 5885 5884 5883 5882 5881 5879 5878 5877 5876
5852 5857 5861 5863 5866 5869 5872 5874 5877 5878 5878 5880 5882 5884 5886 5888 5889 5891 5892 5892 5892 5892 5892 5893 5893 5892 5891 5890 5890 5888 5887 5886 5885 5884 5883 5882 5881 5880 5879 5878 5876 5875 5874 5873
5846 5850 5855 5857 5860 5863 5866 5869 5870 5872 5874 5875 5876 5881 5882 5883 5885 5886 5887 5887 5888 5888 5888 5889 5889 5889 5888 5887 5886 5885 5884 5882 5882 5881 5879 5878 5877 5876 5875 5874 5873 5872 5871 5870
5841 5844 5848 5852 5855 5857 5860 5863 5865 5867 5869 5870 5871 5877 5877 5878 5879 5881 5882 5882 5883 5883 5884 5884 5885 5885 5884 5884 5883 5882 5881 5879 5877 5877 5876 5875 5873 5872 5872 5871 5869 5868 5867 5866
5836 5839 5842 5846 5850 5852 5854 5856 5859 5861 5863 5864 5866 5871 5872 5873 5874 5875 5876 5877 5878 5878 5879 5880 5880 5880 5880 5879 5879 5878 5876 5875 5874 5873 5872 5871 5869 5868 5867 5866 5864 5863 5862 5861
5831 5834 5837 5841 5843 5846 5847 5850 5852 5855 5856 5858 5860 5863 5866 5867 5868 5870 5871 5872 5873 5873 5874 5874 5875 5875 5875 5874 5873 5872 5871 5871 5870 5869 5867 5866 5865 5864 5862 5860 5859 5858 5856 5855
5825 5828 5831 5834 5837 5839 5840 5843 5845 5848 5849 5852 5854 5856 5859 5861 5863 5864 5865 5866 5867 5868 5868 5869 5869 5869 5869 5869 5868 5867 5866 5865 5864 5863 5862 5860 5859 5858 5856 5854 5853 5852 5850 5849
5818 5822 5825 5828 5830 5832 5834 5836 5838 5841 5842 5845 5847 5850 5852 5854 5856 5857 5859 5860 5861 5862 5862 5863 5863 5863 5863 5862 5862 5861 5860 5859 5858 5857 5856 5855 5853 5852 5850 5848 5847 5846 5844 5843
5812 5815 5818 5821 5824 5825 5827 5829 5831 5833 5835 5838 5840 5843 5845 5847 5849 5851 5852 5853 5854 5855 5856 5856 5856 5856 5856 5855 5855 5854 5853 5852 5851 5850 5849 5848 5847 5845 5843 5842 5840 5839 5838 5836
5806 5809 5811 5814 5817 5818 5822 5822 5824 5826 5828 5830 5833 5835 5837 5839 5841 5843 5845 5846 5847 5848 5848 5849 5849 5849 5849 5848 5848 5847 5846 5845 5844 5843 5842 5841 5840 5839 5837 5835 5834 5832 5831 5829
5798 5801 5804 5806 5808 5810 5813 5815 5816 5819 5820 5823 5825 5828 5830 5832 5834 5836 5837 5838 5839 5840 5841 5841 5841 5841 5841 5840 5840 5839 5839 5838 5837 5836 5835 5833 5832 5831 5830 5828 5826 5825 5823 5822
5791 5794 5797 5799 5800 5803 5807 5808 5809 5812 5812 5816 5818 5820 5822 5824 5826 5828 5829 5830 5831 5832 5832 5832 5833 5832 5832 5832 5832 5831 5830 5830 5829 5827 5826 5825 5824 5823 5821 5820 5818 5817 5815 5814
5783 5786 5788 5791 5793 5795 5798 5800 5802 5805 5807 5809 5810 5812 5814 5816 5818 5820 5820 5822 5822 5823 5824 5824 5824 5824 5823 5823 5822 5822 5821 5820 5819 5818 5818 5817 5815 5814 5813 5811 5810 5808 5807 5806
5775 5778 5781 5783 5786 5790 5791 5792 5795 5796 5798 5800 5802 5804 5806 5808 5810 5811 5812 5813 5814 5814 5815 5815 5815 5815 5814 5813 5812 5812 5811 5811 5810 5809 5808 5807 5806 5805 5803 5802 5800 5799 5798 5797
5768 5771 5773 5777 5780 5781 5783 5785 5786 5788 5790 5792 5794 5796 5798 5799 5801 5802 5803 5804 5805 5806 5806 5806 5806 5805 5804 5803 5803 5802 5801 5800 5800 5799 5798 5797 5796 5794 5793 5792 5790 5789 5787 5786
5760 5763 5766 5769 5771 5773 5775 5777 5778 5780 5782 5783 5785 5786 5788 5790 5791 5793 5794 5795 5795 5795 5796 5795 5795 5794 5793 5793 5792 5791 5790 5790 5789 5788 5787 5786 5785 5784 5782 5781 5780 5778 5776 5775
5753 5755 5758 5760 5763 5765 5767 5768 5770 5771 5773 5774 5776 5777 5779 5780 5781 5782 5783 5784 5784 5784 5785 5784 5784 5783 5782 5782 5781 5781 5780 5779 5778 5778 5777 5776 5774 5773 5772 5770 5769 5766 5765 5764
5746 5748 5750 5752 5755 5757 5759 5760 5761 5762 5764 5765 5766 5768 5769 5770 5771 5772 5773 5773 5773 5773 5773 5772 5772 5772 5771 5771 5770 5769 5769 5768 5767 5767 5766 5764 5763 5762 5760 5759 5757 5754 5754 5753